Погода в Майкопе

Погода в Майкопе : погода сейчас, прогноз погоды и архив. Всё, что Вы хотите узнать о погоде в Майкопе!

Поиск расширенной информации на нашем сайте:

Другие новости

Новости СМИ2

Главная страница сайта

Новости сайта

03.07.2017

Напоминаем, что на нашем специализированном сайте Метеоцентр.Азия вы можете получить высокодетализированные автоматические прогнозы погоды по пунктам России, СНГ и мира в авиационном формате (включающие направление и скорость ветра, видимость, явления погоды, количество и форму облачности, нижнюю и верхнюю границу облачности).


Погода в Майкопе - сегодня

Время (UTC), дата Ветер
(°,м/с) 
Видим.   Явления Облачность Т
(°С)
Тd
(°С)
f(%) Тe
(°С)
Pmin
(гПа)
dP
(гПа)
Po
(мм)
O2
(г/м3)
Тmin Tmax R s Состояние
почвы
12 20.10.17 320 (СЗ) 20000 м    4/0 верхняя 
[Ci fib]
+21.6 +7.5 40 +22  1018.1  -0.8  745  277           
15 20.10.17 тихо ()   20000 м    6/0 верхняя 
[Ci sp]
+13.4 +8.5 72 +13  1019.1  0.3  745  285    +21.9       
18 20.10.17 150 (ЮВ) 20000 м    8/0 верхняя 
[Ci sp]
+12.5 +9 79 +13  1019.7  0.5  745  285           
21 20.10.17 150 (ЮВ) 20000 м    4/0 верхняя 
[Ci sp]
+10.8 +7.8 82 +12  1019  -0.8  745  287           
00 21.10.17 140 (ЮВ) 20000 м    ясно 
+9 +7.4 90 +9  1019.2  745  289           
03 21.10.17 160 (Ю) 20000 м    3/0 верхняя 
[Ci fib]
+9.2 +6 80 +9  1018.4  -0.8  744  289  +8.2         
06 21.10.17 150 (ЮВ) 20000 м    9/0 верхняя 
[Ci]
+10.7 +6.1 73 +11  1018.6  0.4  744  288  +5.8         
09 21.10.17 300 (СЗ) 20000 м    10/1 1000 м верхняя 
[Sc|Ci sp]
+13.2 +9.6 79 +15  1018.1  -0.3  744  284           
12 21.10.17 300 (СЗ) 20000 м    8/1 1000 м верхняя 
[Sc|Ci sp]
+15.3 +9 66 +17  1016.2  -1.7  743  282           
15 21.10.17 040 (СВ) 20000 м    8/3 1000 м средняя, верхняя 
[Sc|Ac As|Ci sp]
+10.9 +8.8 87 +12  1016.4  -0.1  743  286    +16.4       
18 21.10.17 140 (ЮВ) 20000 м    9/4 1000 м средняя 
[Sc|Ac As]
+10.5 +9.2 92 +12  1016.2  -0.3  742  286           
21 21.10.17 150 (ЮВ) 20000 м    8/4 1000 м средняя 
[Sc|Ac As]
+10.3 +8.2 87 +10  1014.9  -1.2  742  286           
00 22.10.17 160 (Ю) 20000 м    9/4 1000 м средняя 
[Sc|Ac As]
+9.2 +7.1 87 +9  1014.2  -0.8  741  288           
03 22.10.17 150 (ЮВ) 20000 м    9/4 1000 м средняя 
[Sc|Ac As]
+8.2 +6.5 89 +8  1013.3  -0.9  740  288  +8.2         
06 22.10.17 150 (ЮВ) 20000 м    10/3 1000 м средняя, верхняя 
[Sc|Ac trans|Ci sp]
+9.8 +7.1 83 +10  1013.3  0.2  740  287  +7.5         
09 22.10.17 070 (В) 20000 м    10/4 1000 м средняя 
[Sc|Ac As]
+15.7 +9 64 +17  1011.6  -1.2  739  280           
12 22.10.17 200 (Ю) 10 км  слаб. ливневой дождь  10/5 1000 м кучево-дожд., средняя 
[Cb cap|Ac As]
+15.6 +9 65 +16  1010.8  -0.7  739  280           
15 22.10.17 240 (ЮЗ) 10 км  слаб. ливневой дождь  10/8 600 м кучево-дожд., средняя 
[Cb cap|Ac As]
+12.2 +10.7 91 +15  1011.8  0.6  739  283    +17.1     
18 22.10.17 220 (ЮЗ) 10 км  слаб. ливневой дождь  10/8 1000 м кучево-дожд., средняя 
[Cb cap|Ac As]
+12.1 +10.2 88 +14  1013.4  1.5  740  284           
21 22.10.17 270 (З) 10 км  в посл. час ливневой дождь  10/4 1000 м кучево-дожд., средняя 
[Cb cap|Ac As]
+11.3 +10.8 97 +14  1015  1.6  742  285           
00 23.10.17 020 (С) 10 км  слаб. ливневой дождь  10/6 600 м кучево-дожд., средняя 
[Cb cap|Ac As]
+9.5 +9.2 98 +10  1016.4  1.2  743  287           
03 23.10.17 040 (СВ) 10 км  {ливн. осадки}  10/10 300 м 
[St]
+7.5 +7.2 98 +7  1018.3  1.6  744  290  +7.5       
06 23.10.17 050 (СВ) 2000 м  дымка{ливн. осадки}  10/10 300 м 
[St]
+7 +6.9 99 +6  1019.8  1.4  745  291  +6.7         
09 23.10.17 060 (СВ) 20000 м    10/10 300 м 
[St]
+8 +6.6 91 +7  1019.6  0.1  745  290           
12 23.10.17 060 (СВ) 20000 м    10/10 300 м 
[St]
+9.3 +7 86 +8  1018.5  -1  744  289           
Время (UTC), дата Ветер
(°,м/с) 
Видим.   Явления Облачность Т
(°С)
Тd
(°С)
f(%) Тe
(°С)
Pmin
(гПа)
dP
(гПа)
Po
(мм)
O2
(г/м3)
Тmin Tmax R s Состояние
почвы

Для получения пояснительной информации подведите курсор к названию столбца.

ПОГОДА в Майкопе - архив

Всё, что Вы хотите узнать о погоде в Майкопе - удобно и подробно!

Выберите нужную дату (начиная с 1 января 2015* года) и нажмите кнопку "Найти".
Будут отображены архивные сводки погоды по пункту Майкоп, начиная с указанной даты.


Отображать данные в формате CSV (для использования в таблицах Excel)


Внимание! Наш архив погоды предназначен исключительно для личного некоммерческого использования в познавательных целях. Если Вам необходимы официальные справки о состоянии погоды (для производственных, юридических, коммерческих и т.п. целей), обращайтесь в органы Росгидромета.

*Примечание: данная дата относится к архиву по метеостанциям СССР (Россия, СНГ, Балтия).
Архив по метеостанциям Зарубежной Европы и Азии (кроме Китая) хранится 10 дней, по другим регионам земного шара (Китай, Африка, Америка, Австралия, Океания) - 1 день.

Майкоп - район местоположения метеостанции


Название, широта, долгота, высота метеостанции:
Майкоп 44.7°ш. 40.1°д. 207 м над ур. моря [Российская Федерация]

Дополнительная информация

В oтличие oт бoльшинства пoгoдных сайтoв мы публикуем пoдрoбную метеoинфoрмацию в детальнoм прoфессиoнальнoм фoрмате.

Характеристики температуры и влажнoсти вoздуха измеряются на высoте 2 м в тени вдали oт зданий и деревьев.
Скoрoсть ветра измеряется на высoте 10 м (на урoвне рoста челoвека скoрoсть ветра ниже в 1.5-2 раза). Если метеoстанция нахoдится в гoрoде или в лесу, тo скoрoсть ветра занижена на 2-4 м/с пo сравнению с oткрытым местoм. Скoрoсть ветра над акватoриями крупных рек и oзёр, а также на вершинах хoлмoв на 2-5 м/с выше, чем в oбычных услoвиях.
Атмoсфернoе давление в разных тoчках местнoсти мoжет значительнo oтличаться oт давления на метеoстанции, в зависимoсти oт услoвий рельефа (при пoдъёме на 10 м давление пoнижается примернo на 1 мм рт.ст.).